| time (UTC) | temp C | wind direction | speed KPH | gust KPH | rain 1hr cm | rain 24hr cm | rain mn cm | humidity % | barometer mb |
| 20260503050655 | 7 | 110 | 4.8 | 6.4 | 0.00 | 0.00 | 0.00 | 50 | 1010.5 |
| 20260503050151 | 7 | 17 | 3.2 | 6.4 | 0.00 | 0.00 | 0.00 | 50 | 1010.7 |
| 20260503045649 | 6 | 170 | 4.8 | 6.4 | 0.00 | 0.00 | 0.00 | 50 | 1010.7 |
| 20260503045146 | 7 | 201 | 1.6 | 6.4 | 0.00 | 0.00 | 0.00 | 50 | 1010.6 |
| 20260503044642 | 7 | 214 | 8.0 | 16.1 | 0.00 | 0.00 | 0.00 | 48 | 1010.6 |
| 20260503044140 | 6 | 201 | 3.2 | 4.8 | 0.00 | 0.00 | 0.00 | 51 | 1010.9 |
| 20260503043636 | 6 | 222 | 3.2 | 9.7 | 0.00 | 0.00 | 0.00 | 51 | 1011.1 |
| 20260503043133 | 6 | 207 | 3.2 | 6.4 | 0.00 | 0.00 | 0.00 | 51 | 1011.1 |
| 20260503042630 | 6 | 199 | 4.8 | 11.3 | 0.00 | 0.00 | 0.00 | 50 | 1011.0 |
| 20260503042126 | 6 | 126 | 9.7 | 12.9 | 0.00 | 0.00 | 0.00 | 52 | 1010.9 |
| 20260503041623 | 6 | 240 | 1.6 | 6.4 | 0.00 | 0.00 | 0.00 | 53 | 1010.9 |
| 20260503041121 | 6 | 174 | 6.4 | 11.3 | 0.00 | 0.00 | 0.00 | 53 | 1010.7 |
| 20260503040618 | 6 | 149 | 8.0 | 12.9 | 0.00 | 0.00 | 0.00 | 53 | 1010.9 |
| 20260503040115 | 6 | 93 | 6.4 | 9.7 | 0.00 | 0.00 | 0.00 | 53 | 1011.1 |
| 20260503035611 | 6 | 236 | 4.8 | 11.3 | 0.00 | 0.00 | 0.00 | 53 | 1010.9 |
| 20260503035109 | 5 | 132 | 6.4 | 9.7 | 0.00 | 0.00 | 0.00 | 53 | 1011.3 |
| 20260503034606 | 6 | 204 | 4.8 | 12.9 | 0.00 | 0.00 | 0.00 | 52 | 1011.1 |
| 20260503034103 | 6 | 173 | 3.2 | 11.3 | 0.00 | 0.00 | 0.00 | 51 | 1011.1 |
| 20260503033600 | 6 | 285 | 6.4 | 14.5 | 0.00 | 0.00 | 0.00 | 51 | 1011.2 |
| 20260503033058 | 6 | 214 | 3.2 | 14.5 | 0.00 | 0.00 | 0.00 | 51 | 1011.4 |
| 20260503032556 | 6 | 235 | 8.0 | 12.9 | 0.00 | 0.00 | 0.00 | 50 | 1011.4 |
| 20260503032054 | 6 | 140 | 9.7 | 16.1 | 0.00 | 0.00 | 0.00 | 50 | 1011.6 |
| 20260503031552 | 6 | 100 | 6.4 | 14.5 | 0.00 | 0.00 | 0.00 | 50 | 1011.7 |
| 20260503031049 | 6 | 224 | 3.2 | 12.9 | 0.00 | 0.00 | 0.00 | 50 | 1011.9 |
| 20260503030544 | 6 | 190 | 6.4 | 12.9 | 0.00 | 0.00 | 0.00 | 50 | 1011.9 |
| 20260503030042 | 6 | 189 | 3.2 | 12.9 | 0.00 | 0.00 | 0.00 | 49 | 1011.9 |
| 20260503025539 | 6 | 88 | 6.4 | 9.7 | 0.00 | 0.00 | 0.00 | 50 | 1011.9 |
| 20260503025037 | 6 | 88 | 6.4 | 9.7 | 0.00 | 0.00 | 0.00 | 50 | 1012.3 |
| 20260503024533 | 6 | 111 | 6.4 | 12.9 | 0.00 | 0.00 | 0.00 | 50 | 1012.2 |
| 20260503024031 | 6 | 200 | 4.8 | 12.9 | 0.00 | 0.00 | 0.00 | 51 | 1012.3 |
| 20260503023527 | 6 | 169 | 9.7 | 14.5 | 0.00 | 0.00 | 0.00 | 50 | 1012.5 |
| 20260503023025 | 6 | 78 | 3.2 | 11.3 | 0.00 | 0.00 | 0.00 | 49 | 1012.3 |
| 20260503022520 | 5 | 94 | 4.8 | 11.3 | 0.00 | 0.00 | 0.00 | 50 | 1012.6 |
| 20260503022014 | 5 | 160 | 4.8 | 11.3 | 0.00 | 0.00 | 0.00 | 50 | 1012.7 |
| 20260503021512 | 5 | 206 | 3.2 | 12.9 | 0.00 | 0.00 | 0.00 | 50 | 1012.7 |
| 20260503021009 | 5 | 94 | 4.8 | 16.1 | 0.00 | 0.00 | 0.00 | 50 | 1012.8 |
| 20260503020507 | 5 | 173 | 6.4 | 12.9 | 0.00 | 0.00 | 0.00 | 50 | 1012.7 |
| 20260503020003 | 5 | 78 | 4.8 | 12.9 | 0.00 | 0.00 | 0.00 | 48 | 1012.8 |
| 20260503015500 | 6 | 201 | 3.2 | 9.7 | 0.00 | 0.00 | 0.00 | 48 | 1013.0 |
| 20260503014956 | 6 | 83 | 4.8 | 12.9 | 0.00 | 0.00 | 0.00 | 48 | 1013.0 |
| 20260503014453 | 6 | 84 | 4.8 | 12.9 | 0.00 | 0.00 | 0.00 | 47 | 1012.8 |
| 20260503013951 | 6 | 3 | 4.8 | 16.1 | 0.00 | 0.00 | 0.00 | 46 | 1012.9 |
| 20260503013448 | 6 | 115 | 4.8 | 11.3 | 0.00 | 0.00 | 0.00 | 46 | 1012.9 |
| 20260503012945 | 6 | 109 | 3.2 | 9.7 | 0.00 | 0.00 | 0.00 | 45 | 1012.8 |
| 20260503012443 | 6 | 60 | 6.4 | 9.7 | 0.00 | 0.00 | 0.00 | 45 | 1013.0 |
| 20260503011938 | 6 | 82 | 4.8 | 12.9 | 0.00 | 0.00 | 0.00 | 45 | 1012.9 |
| 20260503011435 | 6 | 134 | 4.8 | 11.3 | 0.00 | 0.00 | 0.00 | 45 | 1013.1 |
| 20260503010933 | 6 | 116 | 3.2 | 12.9 | 0.00 | 0.00 | 0.00 | 45 | 1013.2 |
| 20260503010429 | 6 | 76 | 3.2 | 9.7 | 0.00 | 0.00 | 0.00 | 46 | 1013.3 |
| 20260503005927 | 6 | 78 | 3.2 | 9.7 | 0.00 | 0.00 | 0.00 | 47 | 1013.5 |
| 20260503005424 | 6 | 166 | 3.2 | 4.8 | 0.00 | 0.00 | 0.00 | 47 | 1013.5 |
| 20260503004921 | 6 | 176 | 3.2 | 11.3 | 0.00 | 0.00 | 0.00 | 48 | 1013.5 |
| 20260503004418 | 6 | 143 | 9.7 | 14.5 | 0.00 | 0.00 | 0.00 | 46 | 1013.4 |
| 20260503003915 | 6 | 100 | 4.8 | 11.3 | 0.00 | 0.00 | 0.00 | 47 | 1013.5 |
| 20260503003412 | 6 | 110 | 4.8 | 6.4 | 0.00 | 0.00 | 0.00 | 46 | 1013.5 |
| 20260503002909 | 6 | 146 | 3.2 | 9.7 | 0.00 | 0.00 | 0.00 | 46 | 1013.8 |
| 20260503002406 | 7 | 41 | 6.4 | 11.3 | 0.00 | 0.00 | 0.00 | 46 | 1013.9 |
| 20260503001902 | 7 | 69 | 6.4 | 12.9 | 0.00 | 0.00 | 0.00 | 45 | 1013.9 |
| 20260503001358 | 7 | 180 | 4.8 | 6.4 | 0.00 | 0.00 | 0.00 | 45 | 1013.9 |
| 20260503000856 | 7 | 103 | 6.4 | 11.3 | 0.00 | 0.00 | 0.00 | 44 | 1013.8 |
| 20260503000353 | 8 | 117 | 4.8 | 11.3 | 0.00 | 0.00 | 0.00 | 43 | 1013.9 |
| 20260502235850 | 8 | 59 | 6.4 | 17.7 | 0.00 | 0.00 | 0.00 | 43 | 1013.9 |
| 20260502235347 | 8 | 176 | 8.0 | 17.7 | 0.00 | 0.00 | 0.00 | 43 | 1013.9 |
| 20260502234844 | 8 | 170 | 3.2 | 12.9 | 0.00 | 0.00 | 0.00 | 42 | 1014.0 |
| 20260502234341 | 9 | 145 | 4.8 | 11.3 | 0.00 | 0.00 | 0.00 | 42 | 1014.0 |
| 20260502233838 | 9 | 201 | 4.8 | 9.7 | 0.00 | 0.00 | 0.00 | 41 | 1014.0 |
| 20260502233333 | 10 | 169 | 3.2 | 12.9 | 0.00 | 0.00 | 0.00 | 41 | 1014.1 |
| 20260502232831 | 10 | 164 | 6.4 | 12.9 | 0.00 | 0.00 | 0.00 | 41 | 1014.1 |
| 20260502232327 | 10 | 153 | 8.0 | 12.9 | 0.00 | 0.00 | 0.00 | 41 | 1014.2 |
| 20260502231824 | 11 | 213 | 3.2 | 11.3 | 0.00 | 0.00 | 0.00 | 39 | 1014.3 |
| 20260502231321 | 11 | 187 | 8.0 | 12.9 | 0.00 | 0.00 | 0.00 | 39 | 1014.2 |
| 20260502230819 | 12 | 245 | 3.2 | 3.2 | 0.00 | 0.00 | 0.00 | 30 | 1014.5 |
| 20260502230317 | 12 | 273 | 1.6 | 3.2 | 0.00 | 0.00 | 0.00 | 29 | 1014.2 |
| 20260502225814 | 12 | 257 | 1.6 | 3.2 | 0.00 | 0.00 | 0.00 | 30 | 1014.3 |
| 20260502225310 | 12 | 239 | 1.6 | 3.2 | 0.00 | 0.00 | 0.00 | 30 | 1014.3 |
| 20260502224807 | 12 | 261 | 0.0 | 4.8 | 0.00 | 0.00 | 0.00 | 29 | 1014.2 |
| 20260502224303 | 12 | 320 | 0.0 | 1.6 | 0.00 | 0.00 | 0.00 | 32 | 1014.3 |
| 20260502223801 | 12 | 269 | 0.0 | 3.2 | 0.00 | 0.00 | 0.00 | 29 | 1014.5 |
| 20260502223259 | 12 | 293 | 0.0 | 6.4 | 0.00 | 0.00 | 0.00 | 31 | 1014.5 |
| 20260502222756 | 12 | 195 | 3.2 | 4.8 | 0.00 | 0.00 | 0.00 | 29 | 1014.5 |
| 20260502222254 | 12 | 266 | 1.6 | 3.2 | 0.00 | 0.00 | 0.00 | 30 | 1014.4 |
| 20260502221749 | 12 | 272 | 4.8 | 4.8 | 0.00 | 0.00 | 0.00 | 30 | 1014.7 |
| 20260502221246 | 12 | 268 | 4.8 | 12.9 | 0.00 | 0.00 | 0.00 | 30 | 1014.7 |
| 20260502220743 | 12 | 262 | 1.6 | 3.2 | 0.00 | 0.00 | 0.00 | 30 | 1014.7 |
| 20260502220238 | 12 | 261 | 4.8 | 9.7 | 0.00 | 0.00 | 0.00 | 30 | 1014.6 |
| 20260502215735 | 11 | 246 | 0.0 | 3.2 | 0.00 | 0.00 | 0.00 | 33 | 1014.6 |
| 20260502215233 | 11 | 274 | 0.0 | 3.2 | 0.00 | 0.00 | 0.00 | 31 | 1014.6 |
| 20260502214730 | 11 | 287 | 3.2 | 4.8 | 0.00 | 0.00 | 0.00 | 31 | 1014.9 |
| 20260502214227 | 11 | 269 | 1.6 | 6.4 | 0.00 | 0.00 | 0.00 | 35 | 1015.0 |
| 20260502213724 | 11 | 277 | 4.8 | 9.7 | 0.00 | 0.00 | 0.00 | 32 | 1015.1 |
| 20260502213222 | 11 | 286 | 4.8 | 4.8 | 0.00 | 0.00 | 0.00 | 32 | 1015.0 |
| 20260502212720 | 11 | 229 | 1.6 | 9.7 | 0.00 | 0.00 | 0.00 | 33 | 1015.2 |
| 20260502212218 | 11 | 241 | 3.2 | 12.9 | 0.00 | 0.00 | 0.00 | 34 | 1015.2 |
| 20260502211714 | 11 | 283 | 1.6 | 12.9 | 0.00 | 0.00 | 0.00 | 34 | 1015.3 |
| 20260502211211 | 12 | 245 | 4.8 | 12.9 | 0.00 | 0.00 | 0.00 | 32 | 1015.2 |
| 20260502210708 | 12 | 222 | 0.0 | 0.0 | 0.00 | 0.00 | 0.00 | 33 | 1015.3 |
| 20260502210205 | 12 | 258 | 0.0 | 3.2 | 0.00 | 0.00 | 0.00 | 33 | 1015.5 |
| 20260502205702 | 11 | 257 | 6.4 | 9.7 | 0.00 | 0.00 | 0.00 | 31 | 1015.5 |
| 20260502205158 | 12 | 290 | 6.4 | 9.7 | 0.00 | 0.00 | 0.00 | 32 | 1015.5 |
| 20260502204655 | 11 | 263 | 3.2 | 11.3 | 0.00 | 0.00 | 0.00 | 32 | 1015.6 |
| 20260502204148 | 11 | 267 | 3.2 | 9.7 | 0.00 | 0.00 | 0.00 | 35 | 1015.6 |
| 20260502203644 | 11 | 223 | 4.8 | 12.9 | 0.00 | 0.00 | 0.00 | 33 | 1016.0 |
| 20260502203143 | 10 | 273 | 4.8 | 16.1 | 0.00 | 0.00 | 0.00 | 34 | 1015.9 |
| 20260502202637 | 10 | 271 | 4.8 | 6.4 | 0.00 | 0.00 | 0.00 | 34 | 1015.9 |
| 20260502202135 | 11 | 323 | 6.4 | 12.9 | 0.00 | 0.00 | 0.00 | 32 | 1015.9 |
| 20260502201632 | 11 | 267 | 1.6 | 12.9 | 0.00 | 0.00 | 0.00 | 34 | 1015.9 |
| 20260502201128 | 11 | 269 | 6.4 | 16.1 | 0.00 | 0.00 | 0.00 | 34 | 1016.1 |
| 20260502200624 | 11 | 235 | 8.0 | 14.5 | 0.00 | 0.00 | 0.00 | 33 | 1016.0 |
| 20260502200122 | 11 | 255 | 6.4 | 12.9 | 0.00 | 0.00 | 0.00 | 34 | 1016.1 |
| 20260502195620 | 11 | 252 | 4.8 | 4.8 | 0.00 | 0.00 | 0.00 | 34 | 1016.0 |
| 20260502195115 | 11 | 271 | 11.3 | 14.5 | 0.00 | 0.00 | 0.00 | 34 | 1016.1 |
| 20260502194612 | 12 | 258 | 8.0 | 11.3 | 0.00 | 0.00 | 0.00 | 33 | 1016.2 |
| 20260502194108 | 11 | 298 | 6.4 | 9.7 | 0.00 | 0.00 | 0.00 | 34 | 1016.3 |
| 20260502193605 | 11 | 266 | 3.2 | 4.8 | 0.00 | 0.00 | 0.00 | 37 | 1016.4 |
| 20260502193102 | 11 | 256 | 3.2 | 11.3 | 0.00 | 0.00 | 0.00 | 36 | 1016.4 |
| 20260502192557 | 11 | 276 | 3.2 | 12.9 | 0.00 | 0.00 | 0.00 | 36 | 1016.6 |
| 20260502192055 | 11 | 250 | 3.2 | 3.2 | 0.00 | 0.00 | 0.00 | 36 | 1016.5 |
| 20260502191552 | 11 | 295 | 8.0 | 14.5 | 0.00 | 0.00 | 0.00 | 35 | 1016.5 |
| 20260502191049 | 11 | 268 | 1.6 | 9.7 | 0.00 | 0.00 | 0.00 | 40 | 1016.7 |
| 20260502190547 | 10 | 211 | 9.7 | 14.5 | 0.00 | 0.00 | 0.00 | 35 | 1016.8 |
| 20260502190038 | 10 | 307 | 9.7 | 14.5 | 0.00 | 0.00 | 0.00 | 34 | 1016.9 |
| 20260502185538 | 10 | 316 | 9.7 | 16.1 | 0.00 | 0.00 | 0.00 | 34 | 1017.0 |
| 20260502185036 | 10 | 290 | 9.7 | 16.1 | 0.00 | 0.00 | 0.00 | 35 | 1017.0 |
| 20260502184531 | 10 | 264 | 11.3 | 17.7 | 0.00 | 0.00 | 0.00 | 32 | 1017.0 |
| 20260502184028 | 10 | 242 | 4.8 | 12.9 | 0.00 | 0.00 | 0.00 | 34 | 1017.0 |
| 20260502183524 | 10 | 300 | 6.4 | 9.7 | 0.00 | 0.00 | 0.00 | 38 | 1017.1 |
| 20260502183020 | 11 | 357 | 3.2 | 11.3 | 0.00 | 0.00 | 0.00 | 37 | 1017.1 |
| 20260502182515 | 11 | 292 | 6.4 | 11.3 | 0.00 | 0.00 | 0.00 | 36 | 1017.2 |
| 20260502182011 | 10 | 294 | 8.0 | 9.7 | 0.00 | 0.00 | 0.00 | 37 | 1017.2 |
| 20260502181509 | 10 | 289 | 8.0 | 20.9 | 0.00 | 0.00 | 0.00 | 38 | 1017.2 |
| 20260502181008 | 10 | 297 | 4.8 | 9.7 | 0.00 | 0.00 | 0.00 | 37 | 1017.2 |
| 20260502180505 | 10 | 332 | 3.2 | 12.9 | 0.00 | 0.00 | 0.00 | 41 | 1017.2 |
| 20260502170424 | 10 | 282 | 4.8 | 12.9 | 0.00 | 0.00 | 0.00 | 40 | 1017.8 |
| 20260502163907 | 8 | 270 | 6.4 | 11.3 | 0.00 | 0.00 | 0.00 | 41 | 1018.0 |
| 20260502163403 | 8 | 11 | 3.2 | 6.4 | 0.00 | 0.00 | 0.00 | 38 | 1017.9 |
| 20260502162901 | 10 | 245 | 3.2 | 6.4 | 0.00 | 0.00 | 0.00 | 40 | 1018.0 |
| 20260502162357 | 9 | 278 | 3.2 | 6.4 | 0.00 | 0.00 | 0.00 | 43 | 1018.1 |
| 20260502161854 | 10 | 265 | 3.2 | 11.3 | 0.00 | 0.00 | 0.00 | 40 | 1018.0 |
| 20260502161350 | 9 | 293 | 3.2 | 6.4 | 0.00 | 0.00 | 0.00 | 43 | 1018.3 |
| 20260502160849 | 8 | 308 | 3.2 | 11.3 | 0.00 | 0.00 | 0.00 | 45 | 1018.3 |
| 20260502160347 | 9 | 213 | 6.4 | 6.4 | 0.00 | 0.00 | 0.00 | 44 | 1018.3 |
| 20260502152322 | 9 | 307 | 0.0 | 4.8 | 0.00 | 0.00 | 0.00 | 42 | 1018.5 |
| 20260502151819 | 8 | 303 | 3.2 | 9.7 | 0.00 | 0.00 | 0.00 | 43 | 1018.5 |
| 20260502151316 | 8 | 257 | 1.6 | 6.4 | 0.00 | 0.00 | 0.00 | 42 | 1018.6 |
| 20260502150814 | 8 | 251 | 1.6 | 4.8 | 0.00 | 0.00 | 0.00 | 43 | 1018.6 |
| 20260502150310 | 9 | 241 | 6.4 | 11.3 | 0.00 | 0.00 | 0.00 | 43 | 1018.8 |
| 20260502130658 | 5 | 254 | 1.6 | 4.8 | 0.00 | 0.00 | 0.00 | 49 | 1019.3 |
| 20260502130156 | 5 | 248 | 0.0 | 0.0 | 0.00 | 0.00 | 0.00 | 51 | 1019.3 |
| 20260502123642 | 5 | 249 | 0.0 | 0.0 | 0.00 | 0.00 | 0.00 | 49 | 1019.6 |
| 20260502123138 | 5 | 255 | 0.0 | 3.2 | 0.00 | 0.00 | 0.00 | 49 | 1019.4 |
| 20260502122635 | 5 | 231 | 0.0 | 0.0 | 0.00 | 0.00 | 0.00 | 49 | 1019.5 |
| 20260502122131 | 5 | 235 | 0.0 | 0.0 | 0.00 | 0.00 | 0.00 | 50 | 1019.6 |
| 20260502121630 | 5 | 286 | 0.0 | 1.6 | 0.00 | 0.00 | 0.00 | 51 | 1019.4 |
| 20260502121127 | 4 | 232 | 0.0 | 0.0 | 0.00 | 0.00 | 0.00 | 51 | 1019.5 |
| 20260502120623 | 4 | 201 | 0.0 | 0.0 | 0.00 | 0.00 | 0.00 | 52 | 1019.6 |
| 20260502120120 | 3 | 200 | 0.0 | 0.0 | 0.00 | 0.00 | 0.00 | 57 | 1019.6 |
| 20260502115618 | 2 | 201 | 0.0 | 0.0 | 0.00 | 0.00 | 0.00 | 58 | 1019.6 |
| 20260502115114 | 1 | 200 | 0.0 | 0.0 | 0.00 | 0.00 | 0.00 | 62 | 1019.7 |
| 20260502114610 | 1 | 207 | 0.0 | 0.0 | 0.00 | 0.00 | 0.00 | 63 | 1019.5 |
| 20260502114107 | 1 | 216 | 0.0 | 0.0 | 0.00 | 0.00 | 0.00 | 65 | 1019.7 |
| 20260502113605 | 0 | 223 | 0.0 | 0.0 | 0.00 | 0.00 | 0.00 | 65 | 1019.6 |
| 20260502113103 | 0 | 227 | 0.0 | 0.0 | 0.00 | 0.00 | 0.00 | 65 | 1019.7 |
| 20260502112600 | 0 | 232 | 0.0 | 0.0 | 0.00 | 0.00 | 0.00 | 68 | 1019.6 |
| 20260502112058 | 0 | 233 | 0.0 | 0.0 | 0.00 | 0.00 | 0.00 | 66 | 1019.5 |
| 20260502111555 | 0 | 229 | 0.0 | 0.0 | 0.00 | 0.00 | 0.00 | 64 | 1019.5 |
| 20260502111052 | 0 | 200 | 0.0 | 0.0 | 0.00 | 0.00 | 0.00 | 65 | 1019.5 |
| 20260502110550 | 0 | 267 | 0.0 | 0.0 | 0.00 | 0.00 | 0.00 | 66 | 1019.5 |
| 20260502110047 | 0 | 53 | 1.6 | 1.6 | 0.00 | 0.00 | 0.00 | 66 | 1019.6 |
| 20260502105544 | 0 | 337 | 0.0 | 0.0 | 0.00 | 0.00 | 0.00 | 68 | 1019.4 |
| 20260502105042 | 0 | 179 | 0.0 | 0.0 | 0.00 | 0.00 | 0.00 | 67 | 1019.4 |
| 20260502104539 | 0 | 251 | 0.0 | 0.0 | 0.00 | 0.00 | 0.00 | 69 | 1019.6 |
| 20260502104036 | 0 | 319 | 0.0 | 0.0 | 0.00 | 0.00 | 0.00 | 64 | 1019.6 |
| 20260502103534 | 0 | 213 | 0.0 | 0.0 | 0.00 | 0.00 | 0.00 | 66 | 1019.6 |
| 20260502103032 | 0 | 214 | 0.0 | 0.0 | 0.00 | 0.00 | 0.00 | 67 | 1019.5 |
| 20260502102528 | 0 | 335 | 0.0 | 0.0 | 0.00 | 0.00 | 0.00 | 66 | 1019.5 |
| 20260502102025 | 0 | 293 | 0.0 | 0.0 | 0.00 | 0.00 | 0.00 | 63 | 1019.5 |
| 20260502101523 | 0 | 297 | 0.0 | 0.0 | 0.00 | 0.00 | 0.00 | 64 | 1019.5 |
| 20260502101021 | 0 | 334 | 1.6 | 1.6 | 0.00 | 0.00 | 0.00 | 66 | 1019.5 |
| 20260502100520 | 0 | 213 | 0.0 | 3.2 | 0.00 | 0.00 | 0.00 | 69 | 1019.5 |
| 20260502091454 | 0 | 310 | 0.0 | 0.0 | 0.00 | 0.00 | 0.00 | 63 | 1019.5 |
| 20260502090951 | 0 | 273 | 0.0 | 0.0 | 0.00 | 0.00 | 0.00 | 65 | 1019.5 |
| 20260502090448 | 0 | 287 | 0.0 | 1.6 | 0.00 | 0.00 | 0.00 | 66 | 1019.4 |
| 20260502071342 | 0 | 302 | 0.0 | 0.0 | 0.00 | 0.00 | 0.00 | 64 | 1019.8 |
| 20260502070841 | 0 | 283 | 0.0 | 0.0 | 0.00 | 0.00 | 0.00 | 64 | 1019.8 |
| 20260502070338 | 0 | 283 | 0.0 | 0.0 | 0.00 | 0.00 | 0.00 | 66 | 1019.9 |
| 20260502065837 | 0 | 283 | 0.0 | 0.0 | 0.00 | 0.00 | 0.00 | 67 | 1020.3 |
| 20260502065334 | 0 | 301 | 0.0 | 0.0 | 0.00 | 0.00 | 0.00 | 66 | 1020.0 |
| 20260502064832 | 0 | 300 | 0.0 | 0.0 | 0.00 | 0.00 | 0.00 | 66 | 1020.0 |
| 20260502064330 | -1 | 324 | 0.0 | 0.0 | 0.00 | 0.00 | 0.00 | 69 | 1020.2 |
| 20260502063827 | -1 | 302 | 0.0 | 0.0 | 0.00 | 0.00 | 0.00 | 72 | 1020.3 |
| 20260502063325 | -1 | 334 | 0.0 | 0.0 | 0.00 | 0.00 | 0.00 | 71 | 1020.1 |
| 20260502062822 | -1 | 303 | 0.0 | 0.0 | 0.00 | 0.00 | 0.00 | 71 | 1020.3 |
| 20260502062319 | -1 | 321 | 0.0 | 0.0 | 0.00 | 0.00 | 0.00 | 70 | 1020.4 |
| 20260502061818 | -1 | 300 | 0.0 | 0.0 | 0.00 | 0.00 | 0.00 | 72 | 1020.4 |
| 20260502061315 | -1 | 326 | 0.0 | 0.0 | 0.00 | 0.00 | 0.00 | 71 | 1020.3 |
| 20260502060811 | -1 | 304 | 0.0 | 0.0 | 0.00 | 0.00 | 0.00 | 72 | 1020.4 |
| 20260502060306 | -1 | 300 | 0.0 | 0.0 | 0.00 | 0.00 | 0.00 | 71 | 1020.3 |
| 20260502055804 | -1 | 319 | 0.0 | 0.0 | 0.00 | 0.00 | 0.00 | 69 | 1020.4 |
| 20260502055305 | -1 | 303 | 0.0 | 0.0 | 0.00 | 0.00 | 0.00 | 71 | 1020.4 |
| 20260502054801 | -1 | 303 | 0.0 | 0.0 | 0.00 | 0.00 | 0.00 | 72 | 1020.5 |
| 20260502054258 | -1 | 337 | 0.0 | 0.0 | 0.00 | 0.00 | 0.00 | 72 | 1020.4 |
| 20260502053756 | -1 | 297 | 0.0 | 1.6 | 0.00 | 0.00 | 0.00 | 70 | 1020.6 |
| 20260502053253 | -1 | 298 | 0.0 | 0.0 | 0.00 | 0.00 | 0.00 | 71 | 1020.5 |
| 20260502052750 | -1 | 305 | 0.0 | 0.0 | 0.00 | 0.00 | 0.00 | 72 | 1020.5 |
| 20260502052249 | -1 | 324 | 0.0 | 0.0 | 0.00 | 0.00 | 0.00 | 72 | 1020.6 |
| 20260502051746 | -1 | 296 | 0.0 | 0.0 | 0.00 | 0.00 | 0.00 | 71 | 1020.7 |
| 20260502051244 | -1 | 338 | 0.0 | 0.0 | 0.00 | 0.00 | 0.00 | 73 | 1020.8 |